CZ-6A DEB, 54262

Orbit data source: Space-Track

CZ-6A DEB, 54262 is space debris in SSO originally from a launch on Fri, 11 Nov 2022 UTC launched from the Taiyaun Space Center, China (TSC). Debris objects in space refer to the collection of defunct objects orbiting the Earth. Examples of debris include non-operational satellites, rocket bodies, and fragments generated from explosions, collisions, or faulty payload assembly.

Loading next visibility...
Identifier
54262, 2022-151D
Orbit
SSO
Country
Flag of CNCN / PRC
Related business
Manufacturer
SAST
Mission
Spacecraft
Bus & Motor
Unknown
Mass
Unknown
Launch date (UTC)
2022-11-11 (4 years ago)
Launch vehicle
Unknown
Launch site
Taiyaun Space Center, China (TSC)
Object type
Payload
Rocket body
Debris
Shape & HBR
Unknown shape, 0.2 m
Radar Cross Section
Medium (>0.1 m² and <1 m²)

Expand to show TLE details & history
Last TLE update: 6 hours ago

TLE from 6 hours ago
0 CZ-6A DEB
1 54262U 22151D   26238.49361821  .00000776  00000-0  81179-3 0  9994
2 54262  99.0550 159.1285 0274845  87.0361 276.2195 13.62624531188131
Epoch: 2026-08-26T11:50Z
TLE epoch observation values (Epoch: 2026-08-26T11:50:48.613Z)
Latitude
-0.00011°
Longitude
6.68014°
Altitude
1,012.496 km
Speed
7.354 km/s
True Right ascension
10h 36m 30s
True Declination
0° 00' 00"
Sunlit
Object was in daylight at epoch
Visualization orbit readout
Latitude
Unknown
Longitude
Unknown
Altitude
Unknown
Speed
Unknown
Apparent Right ascension
Unknown
Apparent Declination
Unknown
Sunlit
N/A
Visualization observer readout
Local Sidereal Time
09:32:17
Azimuth
Unknown
Elevation
Unknown
Doppler factor
Unknown
Orbital elements
Apogee altitude
1,226.846 km
Perigee altitude
819.99 km
Semi-major axis
7,401.555 km
Eccentricity
0.02748
Inclination
99.055°
RAAN
159.1285°
Arg. of periapsis
87.0361°
True anomaly
273.07843°
Mean anomaly
276.2195°
Eccentric anomaly
274.64994°
Mean motion
3.40846 °/min
Orbital period
105.62 mins
BSTAR
0.00081179
Loading maneuver chart data...
Computing Atmospheric mass density...
Loading historical data...
Loading historical data...
Loading historical data...
Loading historical data...
Loading historical data...
Loading historical data...
Loading historical data...

Documentation

Showing up to 5 results
|